| time (UTC) | temp F | wind direction | speed MPH | gust MPH | rain 1hr in | rain 24hr in | rain mn in | humidity % | barometer mb |
| 20260506102240 | 76 | 130 | 0.0 | 3.0 | 0.00 | 0.00 | 0.00 | 100 | 1007.6 |
| 20260506101736 | 76 | 140 | 0.0 | 2.0 | 0.00 | 0.00 | 0.00 | 100 | 1007.7 |
| 20260506101228 | 76 | 132 | 0.0 | 2.0 | 0.00 | 0.00 | 0.00 | 100 | 1007.7 |
| 20260506100722 | 76 | 143 | 0.0 | 0.0 | 0.00 | 0.00 | 0.00 | 100 | 1007.6 |
| 20260506100219 | 76 | 143 | 0.0 | 1.0 | 0.00 | 0.00 | 0.00 | 100 | 1007.7 |
| 20260506095950 | 76 | 144 | 0.0 | 1.0 | 0.00 | 0.00 | 0.00 | 100 | 1007.6 |
| 20260506095219 | 76 | 121 | 0.0 | 0.0 | 0.00 | 0.00 | 0.00 | 100 | 1007.5 |
| 20260506094720 | 76 | 125 | 0.0 | 0.0 | 0.00 | 0.00 | 0.00 | 100 | 1007.4 |
| 20260506094448 | 76 | 118 | 0.0 | 0.0 | 0.00 | 0.00 | 0.00 | 100 | 1007.5 |
| 20260506093717 | 76 | 115 | 0.0 | 0.0 | 0.00 | 0.00 | 0.00 | 100 | 1007.6 |
| 20260506093218 | 76 | 115 | 0.0 | 0.0 | 0.00 | 0.00 | 0.00 | 100 | 1007.6 |
| 20260506092715 | 76 | 124 | 0.0 | 0.0 | 0.00 | 0.00 | 0.00 | 100 | 1007.6 |
| 20260506091711 | 76 | 123 | 0.0 | 1.0 | 0.00 | 0.00 | 0.00 | 100 | 1007.5 |
| 20260506091208 | 76 | 122 | 0.0 | 0.0 | 0.00 | 0.00 | 0.00 | 100 | 1007.5 |
| 20260506090709 | 76 | 122 | 0.0 | 4.0 | 0.00 | 0.00 | 0.00 | 100 | 1007.5 |
| 20260506090209 | 76 | 128 | 0.0 | 4.0 | 0.00 | 0.00 | 0.00 | 100 | 1007.4 |
| 20260506085707 | 76 | 145 | 1.0 | 4.0 | 0.00 | 0.00 | 0.00 | 100 | 1007.5 |
| 20260506085204 | 76 | 144 | 1.0 | 6.0 | 0.00 | 0.00 | 0.00 | 100 | 1007.5 |
| 20260506084704 | 76 | 134 | 2.0 | 6.0 | 0.00 | 0.00 | 0.00 | 100 | 1007.5 |
| 20260506084201 | 76 | 156 | 3.0 | 6.0 | 0.00 | 0.00 | 0.00 | 100 | 1007.5 |
| 20260506083701 | 77 | 127 | 3.0 | 6.0 | 0.00 | 0.00 | 0.00 | 100 | 1007.5 |
| 20260506083200 | 77 | 119 | 2.0 | 5.0 | 0.00 | 0.00 | 0.00 | 100 | 1007.5 |
| 20260506082651 | 77 | 124 | 2.0 | 4.0 | 0.00 | 0.00 | 0.00 | 100 | 1007.5 |
| 20260506082144 | 77 | 129 | 2.0 | 4.0 | 0.00 | 0.00 | 0.00 | 100 | 1007.6 |
| 20260506081631 | 77 | 139 | 2.0 | 5.0 | 0.00 | 0.00 | 0.00 | 100 | 1007.6 |
| 20260506081125 | 77 | 128 | 4.0 | 6.0 | 0.00 | 0.00 | 0.00 | 100 | 1007.5 |
| 20260506080854 | 77 | 142 | 4.0 | 6.0 | 0.00 | 0.00 | 0.00 | 100 | 1007.5 |
| 20260506080117 | 77 | 137 | 4.0 | 6.0 | 0.00 | 0.00 | 0.00 | 100 | 1007.6 |
| 20260506073042 | 77 | 129 | 3.0 | 5.0 | 0.00 | 0.00 | 0.00 | 100 | 1008.0 |
| 20260506072530 | 77 | 130 | 3.0 | 7.0 | 0.00 | 0.00 | 0.00 | 100 | 1008.2 |
| 20260506072025 | 77 | 134 | 4.0 | 8.0 | 0.00 | 0.00 | 0.00 | 100 | 1008.2 |
| 20260506071523 | 77 | 148 | 4.0 | 8.0 | 0.00 | 0.00 | 0.00 | 100 | 1008.2 |
| 20260506071017 | 77 | 149 | 3.0 | 6.0 | 0.00 | 0.00 | 0.00 | 100 | 1008.3 |
| 20260506070511 | 77 | 149 | 2.0 | 5.0 | 0.00 | 0.00 | 0.00 | 100 | 1008.4 |
| 20260506061917 | 78 | 168 | 1.0 | 5.0 | 0.00 | 0.00 | 0.00 | 100 | 1008.8 |
| 20260506061411 | 78 | 165 | 3.0 | 6.0 | 0.00 | 0.00 | 0.00 | 100 | 1008.8 |
| 20260506060905 | 78 | 144 | 3.0 | 7.0 | 0.00 | 0.00 | 0.00 | 100 | 1008.8 |
| 20260506060355 | 78 | 182 | 2.0 | 11.0 | 0.00 | 0.00 | 0.00 | 100 | 1008.8 |
| 20260506051254 | 78 | 153 | 7.0 | 12.0 | 0.00 | 0.00 | 0.00 | 100 | 1008.3 |
| 20260506050747 | 78 | 148 | 7.0 | 12.0 | 0.00 | 0.00 | 0.00 | 100 | 1008.3 |
| 20260506050247 | 78 | 143 | 7.0 | 11.0 | 0.00 | 0.00 | 0.00 | 100 | 1008.4 |
| 20260506044728 | 78 | 144 | 8.0 | 14.0 | 0.00 | 0.00 | 0.00 | 100 | 1008.3 |
| 20260506044229 | 78 | 140 | 9.0 | 16.0 | 0.00 | 0.00 | 0.00 | 100 | 1008.2 |
| 20260506043728 | 78 | 165 | 9.0 | 16.0 | 0.00 | 0.00 | 0.00 | 100 | 1008.2 |
| 20260506043500 | 78 | 140 | 9.0 | 18.0 | 0.00 | 0.00 | 0.00 | 100 | 1008.2 |
| 20260506042728 | 78 | 162 | 10.0 | 18.0 | 0.00 | 0.00 | 0.00 | 100 | 1008.2 |
| 20260506042229 | 78 | 146 | 10.0 | 16.0 | 0.00 | 0.00 | 0.00 | 100 | 1008.2 |
| 20260506041728 | 78 | 143 | 10.0 | 16.0 | 0.00 | 0.00 | 0.00 | 100 | 1008.1 |
| 20260506041228 | 78 | 143 | 9.0 | 15.0 | 0.00 | 0.00 | 0.00 | 100 | 1008.1 |
| 20260506040728 | 78 | 147 | 10.0 | 15.0 | 0.00 | 0.00 | 0.00 | 100 | 1008.1 |
| 20260506040228 | 78 | 139 | 9.0 | 15.0 | 0.00 | 0.00 | 0.00 | 100 | 1008.1 |
| 20260506035729 | 78 | 136 | 8.0 | 12.0 | 0.00 | 0.00 | 0.00 | 100 | 1008.2 |
| 20260506035228 | 78 | 150 | 8.0 | 13.0 | 0.00 | 0.00 | 0.00 | 100 | 1008.1 |
| 20260506034728 | 78 | 141 | 8.0 | 13.0 | 0.00 | 0.00 | 0.00 | 100 | 1008.1 |
| 20260506034228 | 78 | 145 | 9.0 | 15.0 | 0.00 | 0.00 | 0.00 | 100 | 1008.1 |
| 20260506033728 | 78 | 137 | 9.0 | 15.0 | 0.00 | 0.00 | 0.00 | 100 | 1008.1 |
| 20260506033228 | 78 | 151 | 8.0 | 16.0 | 0.00 | 0.00 | 0.00 | 100 | 1008.1 |
| 20260506032729 | 78 | 138 | 8.0 | 16.0 | 0.00 | 0.00 | 0.00 | 100 | 1008.1 |
| 20260506032227 | 78 | 138 | 9.0 | 16.0 | 0.00 | 0.00 | 0.00 | 100 | 1008.0 |
| 20260506031954 | 78 | 158 | 8.0 | 16.0 | 0.00 | 0.00 | 0.00 | 100 | 1008.1 |
| 20260506031210 | 78 | 140 | 9.0 | 15.0 | 0.00 | 0.00 | 0.00 | 100 | 1008.0 |
| 20260506030709 | 78 | 154 | 10.0 | 15.0 | 0.00 | 0.00 | 0.00 | 100 | 1008.0 |
| 20260506030203 | 78 | 147 | 9.0 | 15.0 | 0.00 | 0.00 | 0.00 | 100 | 1007.9 |
| 20260506025658 | 77 | 142 | 8.0 | 15.0 | 0.00 | 0.00 | 0.00 | 100 | 1007.8 |
| 20260506025152 | 77 | 133 | 7.0 | 12.0 | 0.00 | 0.00 | 0.00 | 100 | 1007.7 |
| 20260506024653 | 77 | 153 | 7.0 | 14.0 | 0.00 | 0.00 | 0.00 | 100 | 1007.6 |
| 20260506024422 | 77 | 134 | 8.0 | 14.0 | 0.00 | 0.00 | 0.00 | 100 | 1007.5 |
| 20260506023651 | 77 | 145 | 9.0 | 13.0 | 0.00 | 0.00 | 0.00 | 100 | 1007.5 |
| 20260506023148 | 77 | 137 | 8.0 | 15.0 | 0.00 | 0.00 | 0.00 | 100 | 1007.4 |
| 20260506022649 | 77 | 144 | 8.0 | 15.0 | 0.00 | 0.00 | 0.00 | 100 | 1007.3 |
| 20260506022147 | 77 | 132 | 9.0 | 15.0 | 0.00 | 0.00 | 0.00 | 100 | 1007.2 |
| 20260506021651 | 77 | 134 | 9.0 | 15.0 | 0.00 | 0.00 | 0.00 | 100 | 1007.1 |
| 20260506021146 | 77 | 130 | 9.0 | 14.0 | 0.00 | 0.00 | 0.00 | 100 | 1007.1 |
| 20260506020648 | 77 | 125 | 8.0 | 13.0 | 0.00 | 0.00 | 0.00 | 100 | 1007.1 |
| 20260506020143 | 77 | 144 | 8.0 | 13.0 | 0.00 | 0.00 | 0.00 | 100 | 1007.0 |
| 20260506015646 | 78 | 155 | 9.0 | 13.0 | 0.00 | 0.00 | 0.00 | 100 | 1007.0 |
| 20260506015144 | 78 | 146 | 9.0 | 16.0 | 0.00 | 0.00 | 0.00 | 100 | 1006.9 |
| 20260506014645 | 78 | 156 | 9.0 | 16.0 | 0.00 | 0.00 | 0.00 | 100 | 1006.9 |
| 20260506014140 | 78 | 139 | 10.0 | 17.0 | 0.00 | 0.00 | 0.00 | 100 | 1006.8 |
| 20260506013639 | 78 | 142 | 10.0 | 17.0 | 0.00 | 0.00 | 0.00 | 100 | 1006.8 |
| 20260506013140 | 78 | 130 | 10.0 | 16.0 | 0.00 | 0.00 | 0.00 | 100 | 1006.6 |
| 20260506012640 | 78 | 133 | 10.0 | 16.0 | 0.00 | 0.00 | 0.00 | 100 | 1006.5 |
| 20260506012141 | 78 | 138 | 10.0 | 15.0 | 0.00 | 0.00 | 0.00 | 100 | 1006.5 |
| 20260506011640 | 78 | 153 | 9.0 | 15.0 | 0.00 | 0.00 | 0.00 | 100 | 1006.5 |
| 20260506011140 | 78 | 138 | 9.0 | 15.0 | 0.00 | 0.00 | 0.00 | 100 | 1006.4 |
| 20260506010640 | 78 | 142 | 9.0 | 15.0 | 0.00 | 0.00 | 0.00 | 100 | 1006.4 |
| 20260506010141 | 78 | 145 | 9.0 | 15.0 | 0.00 | 0.00 | 0.00 | 100 | 1006.3 |
| 20260506005907 | 78 | 137 | 10.0 | 16.0 | 0.00 | 0.00 | 0.00 | 100 | 1006.2 |
| 20260506005124 | 78 | 138 | 9.0 | 16.0 | 0.00 | 0.00 | 0.00 | 100 | 1006.2 |
| 20260506004855 | 78 | 124 | 9.0 | 15.0 | 0.00 | 0.00 | 0.00 | 100 | 1006.2 |
| 20260506004125 | 79 | 158 | 9.0 | 15.0 | 0.00 | 0.00 | 0.00 | 100 | 1006.1 |
| 20260506003624 | 79 | 130 | 11.0 | 16.0 | 0.00 | 0.00 | 0.00 | 100 | 1006.0 |
| 20260506003124 | 79 | 150 | 11.0 | 16.0 | 0.00 | 0.00 | 0.00 | 100 | 1006.1 |
| 20260506002624 | 79 | 134 | 11.0 | 18.0 | 0.00 | 0.00 | 0.00 | 100 | 1006.1 |
| 20260506002401 | 79 | 138 | 11.0 | 18.0 | 0.00 | 0.00 | 0.00 | 100 | 1006.1 |
| 20260506001624 | 79 | 157 | 11.0 | 18.0 | 0.00 | 0.00 | 0.00 | 100 | 1006.1 |
| 20260506001125 | 79 | 157 | 12.0 | 19.0 | 0.00 | 0.00 | 0.00 | 100 | 1006.1 |
| 20260506000619 | 79 | 142 | 12.0 | 19.0 | 0.00 | 0.00 | 0.00 | 100 | 1006.1 |
| 20260506000107 | 79 | 154 | 11.0 | 21.0 | 0.00 | 0.00 | 0.00 | 100 | 1006.1 |
| 20260505235826 | 79 | 142 | 12.0 | 21.0 | 0.00 | 0.00 | 0.00 | 100 | 1006.0 |
| 20260505235043 | 79 | 144 | 13.0 | 19.0 | 0.00 | 0.00 | 0.00 | 100 | 1006.0 |
| 20260505234531 | 80 | 147 | 12.0 | 20.0 | 0.00 | 0.00 | 0.00 | 100 | 1006.1 |
| 20260505234251 | 80 | 136 | 12.0 | 20.0 | 0.00 | 0.00 | 0.00 | 100 | 1006.1 |
| 20260505233511 | 80 | 169 | 11.0 | 20.0 | 0.00 | 0.00 | 0.00 | 100 | 1006.2 |
| 20260505233000 | 80 | 136 | 12.0 | 20.0 | 0.00 | 0.00 | 0.00 | 100 | 1006.2 |
| 20260505232725 | 80 | 135 | 12.0 | 19.0 | 0.00 | 0.00 | 0.00 | 100 | 1006.3 |
| 20260505231944 | 80 | 149 | 12.0 | 20.0 | 0.00 | 0.00 | 0.00 | 100 | 1006.2 |
| 20260505231437 | 80 | 157 | 13.0 | 20.0 | 0.00 | 0.00 | 0.00 | 100 | 1006.1 |
| 20260505230929 | 80 | 126 | 12.0 | 20.0 | 0.00 | 0.00 | 0.00 | 100 | 1006.1 |
| 20260505230421 | 80 | 152 | 10.0 | 20.0 | 0.00 | 0.00 | 0.00 | 100 | 1006.2 |
| 20260505225913 | 80 | 125 | 9.0 | 17.0 | 0.00 | 0.00 | 0.00 | 100 | 1006.2 |
| 20260505225359 | 80 | 153 | 11.0 | 19.0 | 0.00 | 0.00 | 0.00 | 100 | 1006.3 |
| 20260505224859 | 80 | 154 | 11.0 | 21.0 | 0.00 | 0.00 | 0.00 | 100 | 1006.4 |
| 20260505224353 | 80 | 151 | 11.0 | 21.0 | 0.00 | 0.00 | 0.00 | 100 | 1006.3 |
| 20260505223846 | 80 | 143 | 11.0 | 21.0 | 0.00 | 0.00 | 0.00 | 100 | 1006.3 |
| 20260505223336 | 80 | 147 | 12.0 | 21.0 | 0.00 | 0.00 | 0.00 | 100 | 1006.4 |
| 20260505222831 | 80 | 145 | 11.0 | 20.0 | 0.00 | 0.00 | 0.00 | 100 | 1006.4 |
| 20260505222329 | 80 | 155 | 10.0 | 17.0 | 0.00 | 0.00 | 0.00 | 100 | 1006.4 |
| 20260505221824 | 80 | 166 | 11.0 | 18.0 | 0.00 | 0.00 | 0.00 | 100 | 1006.4 |
| 20260505221316 | 80 | 157 | 11.0 | 18.0 | 0.00 | 0.00 | 0.00 | 100 | 1006.4 |
| 20260505220811 | 80 | 159 | 12.0 | 21.0 | 0.00 | 0.00 | 0.00 | 100 | 1006.5 |
| 20260505220305 | 80 | 121 | 13.0 | 21.0 | 0.00 | 0.00 | 0.00 | 100 | 1006.5 |
| 20260505215754 | 80 | 149 | 12.0 | 20.0 | 0.00 | 0.00 | 0.00 | 100 | 1006.6 |
| 20260505215248 | 80 | 136 | 11.0 | 17.0 | 0.00 | 0.00 | 0.00 | 100 | 1006.7 |
| 20260505214742 | 80 | 140 | 11.0 | 19.0 | 0.00 | 0.00 | 0.00 | 100 | 1006.8 |
| 20260505214241 | 80 | 182 | 12.0 | 19.0 | 0.00 | 0.00 | 0.00 | 100 | 1006.9 |
| 20260505213734 | 80 | 131 | 12.0 | 19.0 | 0.00 | 0.00 | 0.00 | 100 | 1007.0 |
| 20260505213229 | 80 | 150 | 12.0 | 19.0 | 0.00 | 0.00 | 0.00 | 100 | 1007.1 |
| 20260505212953 | 80 | 145 | 11.0 | 19.0 | 0.00 | 0.00 | 0.00 | 100 | 1007.1 |
| 20260505212211 | 80 | 123 | 12.0 | 19.0 | 0.00 | 0.00 | 0.00 | 100 | 1007.1 |
| 20260505211711 | 80 | 113 | 13.0 | 19.0 | 0.00 | 0.00 | 0.00 | 100 | 1007.2 |
| 20260505211432 | 80 | 165 | 12.0 | 19.0 | 0.00 | 0.00 | 0.00 | 100 | 1007.2 |
| 20260505210148 | 81 | 149 | 13.0 | 19.0 | 0.00 | 0.00 | 0.00 | 100 | 1007.2 |
| 20260505205647 | 81 | 139 | 12.0 | 19.0 | 0.00 | 0.00 | 0.00 | 100 | 1007.3 |
| 20260505205141 | 81 | 136 | 12.0 | 19.0 | 0.00 | 0.00 | 0.00 | 100 | 1007.3 |
| 20260505204636 | 81 | 138 | 13.0 | 20.0 | 0.00 | 0.00 | 0.00 | 100 | 1007.4 |
| 20260505204127 | 81 | 142 | 11.0 | 20.0 | 0.00 | 0.00 | 0.00 | 100 | 1007.5 |
| 20260505203619 | 81 | 138 | 11.0 | 18.0 | 0.00 | 0.00 | 0.00 | 100 | 1007.6 |
| 20260505203112 | 81 | 155 | 10.0 | 18.0 | 0.00 | 0.00 | 0.00 | 100 | 1007.6 |
| 20260505202607 | 82 | 136 | 11.0 | 19.0 | 0.00 | 0.00 | 0.00 | 100 | 1007.6 |
| 20260505202100 | 81 | 128 | 10.0 | 19.0 | 0.00 | 0.00 | 0.00 | 100 | 1007.6 |
| 20260505201549 | 82 | 140 | 9.0 | 17.0 | 0.00 | 0.00 | 0.00 | 100 | 1007.7 |
| 20260505201048 | 82 | 138 | 9.0 | 17.0 | 0.00 | 0.00 | 0.00 | 100 | 1007.8 |
| 20260505200542 | 81 | 141 | 9.0 | 16.0 | 0.00 | 0.00 | 0.00 | 100 | 1007.9 |
| 20260505200032 | 81 | 136 | 10.0 | 16.0 | 0.00 | 0.00 | 0.00 | 100 | 1007.9 |
| 20260505195526 | 81 | 145 | 8.0 | 15.0 | 0.00 | 0.00 | 0.00 | 100 | 1008.0 |
| 20260505195255 | 81 | 151 | 8.0 | 21.0 | 0.00 | 0.00 | 0.00 | 100 | 1008.1 |
| 20260505194512 | 81 | 154 | 9.0 | 21.0 | 0.00 | 0.00 | 0.00 | 100 | 1008.2 |
| 20260505194238 | 81 | 171 | 10.0 | 21.0 | 0.00 | 0.00 | 0.00 | 100 | 1008.1 |
| 20260505193503 | 81 | 161 | 10.0 | 21.0 | 0.00 | 0.00 | 0.00 | 100 | 1008.2 |
| 20260505193233 | 81 | 153 | 9.0 | 19.0 | 0.00 | 0.00 | 0.00 | 100 | 1008.2 |
| 20260505192454 | 81 | 170 | 9.0 | 19.0 | 0.00 | 0.00 | 0.00 | 100 | 1008.2 |
| 20260505191944 | 81 | 143 | 8.0 | 15.0 | 0.00 | 0.00 | 0.00 | 100 | 1008.3 |
| 20260505191438 | 81 | 161 | 9.0 | 18.0 | 0.00 | 0.00 | 0.00 | 100 | 1008.2 |
| 20260505190932 | 81 | 167 | 11.0 | 19.0 | 0.00 | 0.00 | 0.00 | 100 | 1008.2 |
| 20260505190427 | 81 | 157 | 9.0 | 19.0 | 0.00 | 0.00 | 0.00 | 100 | 1008.4 |
| 20260505185920 | 81 | 178 | 8.0 | 18.0 | 0.00 | 0.00 | 0.00 | 100 | 1008.4 |
| 20260505185415 | 81 | 153 | 9.0 | 18.0 | 0.00 | 0.00 | 0.00 | 100 | 1008.4 |
| 20260505185136 | 81 | 176 | 10.0 | 15.0 | 0.00 | 0.00 | 0.00 | 100 | 1008.4 |
| 20260505184358 | 81 | 172 | 10.0 | 16.0 | 0.00 | 0.00 | 0.00 | 100 | 1008.5 |
| 20260505184127 | 81 | 149 | 9.0 | 17.0 | 0.00 | 0.00 | 0.00 | 100 | 1008.5 |
| 20260505183622 | 81 | 152 | 10.0 | 17.0 | 0.00 | 0.00 | 0.00 | 100 | 1008.5 |
| 20260505182844 | 81 | 146 | 9.0 | 16.0 | 0.00 | 0.00 | 0.00 | 100 | 1008.6 |
| 20260505182339 | 81 | 149 | 9.0 | 15.0 | 0.00 | 0.00 | 0.00 | 100 | 1008.6 |
| 20260505181833 | 81 | 178 | 10.0 | 17.0 | 0.00 | 0.00 | 0.00 | 100 | 1008.6 |
| 20260505181320 | 81 | 154 | 9.0 | 18.0 | 0.00 | 0.00 | 0.00 | 100 | 1008.5 |
| 20260505180815 | 81 | 164 | 9.0 | 18.0 | 0.00 | 0.00 | 0.00 | 100 | 1008.5 |
| 20260505180314 | 81 | 178 | 11.0 | 18.0 | 0.00 | 0.00 | 0.00 | 100 | 1008.6 |
| 20260505175808 | 81 | 183 | 9.0 | 18.0 | 0.00 | 0.00 | 0.00 | 100 | 1008.6 |
| 20260505175257 | 81 | 165 | 9.0 | 17.0 | 0.00 | 0.00 | 0.00 | 100 | 1008.7 |
| 20260505174757 | 81 | 180 | 9.0 | 17.0 | 0.00 | 0.00 | 0.00 | 100 | 1008.7 |
| 20260505174251 | 81 | 161 | 10.0 | 18.0 | 0.00 | 0.00 | 0.00 | 100 | 1008.8 |
| 20260505173745 | 81 | 158 | 10.0 | 18.0 | 0.00 | 0.00 | 0.00 | 100 | 1008.8 |
| 20260505173234 | 81 | 160 | 9.0 | 17.0 | 0.00 | 0.00 | 0.00 | 100 | 1008.7 |
| 20260505172732 | 81 | 138 | 8.0 | 17.0 | 0.00 | 0.00 | 0.00 | 100 | 1008.8 |
| 20260505172226 | 81 | 159 | 8.0 | 16.0 | 0.00 | 0.00 | 0.00 | 100 | 1008.9 |
| 20260505171720 | 81 | 145 | 8.0 | 16.0 | 0.00 | 0.00 | 0.00 | 100 | 1008.9 |
| 20260505171215 | 80 | 167 | 9.0 | 17.0 | 0.00 | 0.00 | 0.00 | 100 | 1009.0 |
| 20260505170708 | 81 | 171 | 9.0 | 17.0 | 0.00 | 0.00 | 0.00 | 100 | 1009.0 |
| 20260505170202 | 80 | 176 | 8.0 | 16.0 | 0.00 | 0.00 | 0.00 | 100 | 1009.0 |
| 20260505165925 | 80 | 182 | 7.0 | 13.0 | 0.00 | 0.00 | 0.00 | 100 | 1009.1 |
| 20260505165150 | 80 | 165 | 8.0 | 14.0 | 0.00 | 0.00 | 0.00 | 100 | 1009.1 |
| 20260505164644 | 80 | 184 | 8.0 | 17.0 | 0.00 | 0.00 | 0.00 | 100 | 1009.1 |
| 20260505164139 | 80 | 151 | 8.0 | 17.0 | 0.00 | 0.00 | 0.00 | 100 | 1009.1 |
| 20260505163628 | 80 | 159 | 9.0 | 17.0 | 0.00 | 0.00 | 0.00 | 100 | 1009.0 |
| 20260505163126 | 80 | 159 | 9.0 | 17.0 | 0.00 | 0.00 | 0.00 | 100 | 1009.1 |
| 20260505162620 | 80 | 184 | 9.0 | 6.0 | 0.00 | 0.00 | 0.00 | 100 | 1009.1 |
| 20260505161347 | 79 | 161 | 7.0 | 15.0 | 0.00 | 0.00 | 0.00 | 100 | 1009.0 |
| 20260505160848 | 79 | 167 | 8.0 | 18.0 | 0.00 | 0.00 | 0.00 | 100 | 1009.0 |
| 20260505160348 | 79 | 165 | 9.0 | 18.0 | 0.00 | 0.00 | 0.00 | 100 | 1008.9 |
| 20260505153344 | 79 | 172 | 9.0 | 19.0 | 0.00 | 0.00 | 0.00 | 100 | 1008.9 |
| 20260505152844 | 79 | 178 | 9.0 | 19.0 | 0.00 | 0.00 | 0.00 | 100 | 1008.8 |
| 20260505152343 | 79 | 151 | 9.0 | 17.0 | 0.00 | 0.00 | 0.00 | 100 | 1008.8 |
| 20260505151848 | 79 | 170 | 9.0 | 17.0 | 0.00 | 0.00 | 0.00 | 100 | 1008.8 |
| 20260505151628 | 78 | 177 | 9.0 | 15.0 | 0.00 | 0.00 | 0.00 | 100 | 1008.8 |
| 20260505150847 | 78 | 176 | 9.0 | 15.0 | 0.00 | 0.00 | 0.00 | 100 | 1008.8 |
| 20260505150341 | 78 | 156 | 8.0 | 15.0 | 0.00 | 0.00 | 0.00 | 100 | 1008.8 |
| 20260505150119 | 78 | 160 | 8.0 | 16.0 | 0.00 | 0.00 | 0.00 | 100 | 1008.8 |
| 20260505140234 | 76 | 181 | 6.0 | 11.0 | 0.00 | 0.00 | 0.00 | 100 | 1008.7 |
| 20260505130208 | 75 | 167 | 5.0 | 10.0 | 0.00 | 0.00 | 0.00 | 100 | 1008.5 |
| 20260505124939 | 75 | 173 | 4.0 | 11.0 | 0.00 | 0.00 | 0.00 | 100 | 1008.3 |
| 20260505124440 | 75 | 182 | 4.0 | 8.0 | 0.00 | 0.00 | 0.00 | 100 | 1008.3 |
| 20260505123937 | 74 | 169 | 3.0 | 8.0 | 0.00 | 0.00 | 0.00 | 100 | 1008.2 |
| 20260505123207 | 74 | 168 | 3.0 | 8.0 | 0.00 | 0.00 | 0.00 | 100 | 1008.2 |
| 20260505122708 | 74 | 163 | 3.0 | 8.0 | 0.00 | 0.00 | 0.00 | 100 | 1008.1 |
| 20260505122203 | 74 | 143 | 2.0 | 5.0 | 0.00 | 0.00 | 0.00 | 100 | 1008.1 |
| 20260505121655 | 74 | 159 | 2.0 | 5.0 | 0.00 | 0.00 | 0.00 | 100 | 1008.0 |
| 20260505121154 | 74 | 155 | 1.0 | 4.0 | 0.00 | 0.00 | 0.00 | 100 | 1008.0 |
| 20260505120654 | 74 | 161 | 0.0 | 4.0 | 0.00 | 0.00 | 0.00 | 100 | 1008.1 |
| 20260505120154 | 74 | 153 | 0.0 | 4.0 | 0.00 | 0.00 | 0.00 | 100 | 1008.1 |
| 20260505115654 | 74 | 161 | 0.0 | 4.0 | 0.00 | 0.00 | 0.00 | 100 | 1008.1 |
| 20260505115156 | 73 | 164 | 1.0 | 4.0 | 0.00 | 0.00 | 0.00 | 100 | 1008.1 |
| 20260505114653 | 73 | 162 | 1.0 | 3.0 | 0.00 | 0.00 | 0.00 | 100 | 1008.0 |
| 20260505114152 | 73 | 159 | 0.0 | 3.0 | 0.00 | 0.00 | 0.00 | 100 | 1008.0 |
| 20260505113648 | 73 | 155 | 1.0 | 3.0 | 0.00 | 0.00 | 0.00 | 100 | 1007.9 |
| 20260505113148 | 73 | 153 | 1.0 | 3.0 | 0.00 | 0.00 | 0.00 | 100 | 1008.0 |
| 20260505112918 | 73 | 156 | 0.0 | 3.0 | 0.00 | 0.00 | 0.00 | 100 | 1008.0 |
| 20260505112147 | 73 | 166 | 0.0 | 2.0 | 0.00 | 0.00 | 0.00 | 100 | 1008.1 |
| 20260505111645 | 73 | 161 | 0.0 | 0.0 | 0.00 | 0.00 | 0.00 | 100 | 1008.1 |
| 20260505111140 | 73 | 153 | 0.0 | 0.0 | 0.00 | 0.00 | 0.00 | 100 | 1008.1 |
| 20260505110634 | 73 | 147 | 0.0 | 0.0 | 0.00 | 0.00 | 0.00 | 100 | 1008.1 |
| 20260505110127 | 73 | 166 | 0.0 | 0.0 | 0.00 | 0.00 | 0.00 | 100 | 1008.1 |